Terminal Aerodrome Forecast
Issued by NWS

Home | Current Version | Previous Version | Text Only | Print | Product List | Glossary On
Versions: 1 2 3 4 5 6 7 8 9 10 11 12 13 14 15 16 17 18 19 20 21 22 23 24 25 26 27 28 29 30 31 32 33 34 35 36
000
FTAK31 PAFA 311729
TAFAOT
TAF
PAOT 311729Z 3118/0118 12018KT 3SM BR OVC010
     FM312200 11015KT P6SM SCT015
     FM010300 11009KT P6SM FEW090=

USA.gov is the U.S. government's official web portal to all federal, state and local government web resources and services.